Fortuna, CA

3:41 AM PDT on September 15, 2019 (GMT -0700)
Rohnerville

Weather History for KFOT - July, 2019

Change the Weather History Date:

Thursday, July 25, 2019

  Actual Average (WUND) Record (WUND)
Temperature  
Mean Temperature 60 °F -  
Max Temperature 66 °F - - (-1)
Min Temperature 53 °F - - (-1)
Degree Days  
Heating Degree Days 6    
Growing Degree Days 10 (Base 50)    
Moisture  
Dew Point 54 °F    
Average Humidity 86    
Maximum Humidity 100    
Minimum Humidity 68    
Precipitation  
Precipitation 0.00 in - - ()
Sea Level Pressure  
Sea Level Pressure 29.98 in    
Wind  
Wind Speed 5 mph (WNW)    
Max Wind Speed 16 mph    
Max Gust Speed 20 mph    
Visibility 9 miles    
Events      
Averages and records for this station are not official NWS values.
T = Trace of Precipitation, MM = Missing Value Source: NWS Daily Summary

Daily Weather History Graph

Daily Weather History Graph

Search for Another Location

Airport or City:

Astronomy

Jul. 25, 2019 Rise Set
Actual Time 6:07 AM PDT 8:38 PM PDT
Civil Twilight 5:35 AM PDT 9:09 PM PDT
Nautical Twilight 4:56 AM PDT 9:48 PM PDT
Astronomical Twilight 4:12 AM PDT 10:32 PM PDT
Moon 12:54 AM PDT (7/25) 2:25 PM PDT (7/25)
Length of Visible Light 15h 34m
Length of Day
14h 31m
Last Quarter, 43% of the Moon is Illuminated
Jul 25
Last Quarter
Jul 31
New
Aug 7
First Quarter
Aug 15
Full
Aug 23
Last Quarter

Hourly Weather History & Observations

Time (PDT) Temp. Dew Point Humidity Pressure Visibility Wind Dir Wind Speed Gust Speed Precip Events Conditions
12:10 AM 57.2 °F 53.6 °F 88% 30.04 in 10.0 mi Calm Calm - N/A   Overcast
12:30 AM 57.2 °F 53.6 °F 88% 30.04 in 10.0 mi Calm Calm - N/A   Overcast
12:50 AM 57.2 °F 53.6 °F 88% 30.03 in 10.0 mi Calm Calm - N/A   Overcast
1:10 AM 57.2 °F 53.6 °F 88% 30.03 in 10.0 mi Calm Calm - N/A   Overcast
1:30 AM 55.4 °F 53.6 °F 94% 30.02 in 10.0 mi Calm Calm - N/A   Overcast
1:50 AM 55.4 °F 53.6 °F 94% 30.01 in 10.0 mi ESE 3.5 mph - N/A   Overcast
2:10 AM 55.4 °F 53.6 °F 94% 30.00 in 10.0 mi SSE 4.6 mph - N/A   Overcast
2:30 AM 55.4 °F 53.6 °F 94% 29.99 in 10.0 mi ESE 6.9 mph - N/A   Overcast
2:50 AM 55.4 °F 53.6 °F 94% 29.98 in 10.0 mi SE 6.9 mph - N/A   Overcast
3:10 AM 55.4 °F 53.6 °F 94% 29.97 in 10.0 mi ESE 6.9 mph - N/A   Overcast
3:30 AM 55.4 °F 51.8 °F 88% 29.97 in 10.0 mi ESE 6.9 mph - N/A   Overcast
3:50 AM 55.4 °F 51.8 °F 88% 29.97 in 10.0 mi ESE 5.8 mph - N/A   Overcast
4:10 AM 53.6 °F 51.8 °F 94% 29.97 in 10.0 mi ESE 3.5 mph - N/A   Overcast
4:30 AM 53.6 °F 51.8 °F 94% 29.97 in 10.0 mi Calm Calm - N/A   Overcast
4:50 AM 53.6 °F 51.8 °F 94% 29.97 in 10.0 mi Calm Calm - N/A   Overcast
5:10 AM 53.6 °F 51.8 °F 94% 29.97 in 10.0 mi Calm Calm - N/A   Overcast
5:30 AM 53.6 °F 51.8 °F 94% 29.97 in 10.0 mi SE 4.6 mph - N/A   Overcast
5:50 AM 53.6 °F 51.8 °F 94% 29.98 in 10.0 mi Calm Calm - N/A   Overcast
6:10 AM 53.6 °F 51.8 °F 94% 29.98 in 10.0 mi North 3.5 mph - N/A   Overcast
6:30 AM 53.6 °F 51.8 °F 94% 29.99 in 10.0 mi Calm Calm - N/A   Overcast
6:50 AM 53.6 °F 51.8 °F 94% 29.99 in 8.0 mi Calm Calm - N/A   Overcast
7:10 AM 53.6 °F 51.8 °F 94% 29.99 in 8.0 mi SSE 3.5 mph - N/A   Overcast
7:30 AM 53.6 °F 51.8 °F 94% 29.99 in 7.0 mi Calm Calm - N/A   Overcast
7:50 AM 53.6 °F 51.8 °F 94% 29.99 in 7.0 mi SE 4.6 mph - N/A   Overcast
8:10 AM 53.6 °F 53.6 °F 100% 29.99 in 9.0 mi SE 3.5 mph - N/A   Mostly Cloudy
8:30 AM 57.2 °F 53.6 °F 88% 29.99 in 10.0 mi Calm Calm - N/A   Partly Cloudy
8:50 AM 57.2 °F 53.6 °F 88% 29.99 in 10.0 mi Calm Calm - N/A   Partly Cloudy
9:10 AM 59.0 °F 53.6 °F 82% 29.99 in 10.0 mi NNW 3.5 mph - N/A   Clear
9:30 AM 60.8 °F 53.6 °F 77% 29.99 in 10.0 mi Calm Calm - N/A   Clear
9:50 AM 62.6 °F 53.6 °F 72% 29.98 in 10.0 mi NNW 4.6 mph - N/A   Clear
10:10 AM 64.4 °F 55.4 °F 73% 29.98 in 10.0 mi WNW 5.8 mph - N/A   Partly Cloudy
10:30 AM 64.4 °F 55.4 °F 73% 29.98 in 10.0 mi WNW 6.9 mph - N/A   Partly Cloudy
10:50 AM 64.4 °F 55.4 °F 73% 29.98 in 10.0 mi NW 6.9 mph - N/A   Partly Cloudy
11:10 AM 66.2 °F 57.2 °F 73% 29.98 in 10.0 mi WNW 6.9 mph - N/A   Partly Cloudy
11:30 AM 66.2 °F 57.2 °F 73% 29.98 in 10.0 mi NW 6.9 mph - N/A   Partly Cloudy
11:50 AM 66.2 °F 57.2 °F 73% 29.98 in 10.0 mi WNW 10.4 mph - N/A   Partly Cloudy
12:10 PM 66.2 °F 57.2 °F 73% 29.98 in 10.0 mi WNW 12.7 mph - N/A   Partly Cloudy
12:30 PM 66.2 °F 55.4 °F 68% 29.98 in 10.0 mi WNW 12.7 mph - N/A   Clear
12:50 PM 64.4 °F 55.4 °F 73% 29.98 in 10.0 mi NW 12.7 mph - N/A   Partly Cloudy
1:10 PM 66.2 °F 55.4 °F 68% 29.98 in 10.0 mi WNW 12.7 mph - N/A   Partly Cloudy
1:30 PM 62.6 °F 55.4 °F 77% 29.98 in 9.0 mi WNW 12.7 mph - N/A   Clear
1:50 PM 64.4 °F 55.4 °F 73% 29.98 in 10.0 mi WNW 16.1 mph - N/A   Clear
2:10 PM 66.2 °F 55.4 °F 68% 29.98 in 10.0 mi WNW 15.0 mph - N/A   Partly Cloudy
2:30 PM 66.2 °F 55.4 °F 68% 29.97 in 10.0 mi WNW 13.8 mph - N/A   Clear
2:50 PM 66.2 °F 55.4 °F 68% 29.97 in 10.0 mi WNW 15.0 mph - N/A   Clear
3:10 PM 62.6 °F 53.6 °F 72% 29.98 in 10.0 mi WNW 16.1 mph - N/A   Clear
3:30 PM 64.4 °F 55.4 °F 73% 29.97 in 10.0 mi WNW 16.1 mph - N/A   Clear
3:50 PM 64.4 °F 55.4 °F 73% 29.97 in 10.0 mi WNW 15.0 mph - N/A   Partly Cloudy
4:10 PM 64.4 °F 55.4 °F 73% 29.97 in 10.0 mi WNW 15.0 mph - N/A   Partly Cloudy
4:30 PM 64.4 °F 55.4 °F 73% 29.97 in 10.0 mi WNW 16.1 mph - N/A   Partly Cloudy
4:50 PM 64.4 °F 55.4 °F 73% 29.97 in 10.0 mi West 16.1 mph - N/A   Partly Cloudy
5:10 PM 62.6 °F 53.6 °F 72% 29.96 in 10.0 mi WNW 13.8 mph 19.6 mph N/A   Partly Cloudy
5:30 PM 64.4 °F 55.4 °F 73% 29.97 in 10.0 mi WNW 15.0 mph - N/A   Partly Cloudy
5:50 PM 62.6 °F 55.4 °F 77% 29.97 in 10.0 mi WNW 15.0 mph - N/A   Clear
6:10 PM 62.6 °F 55.4 °F 77% 29.97 in 9.0 mi WNW 15.0 mph - N/A   Clear
6:30 PM 60.8 °F 55.4 °F 82% 29.97 in 9.0 mi WNW 12.7 mph - N/A   Clear
6:50 PM 59.0 °F 55.4 °F 88% 29.97 in 9.0 mi WNW 11.5 mph - N/A   Partly Cloudy
7:10 PM 57.2 °F 55.4 °F 94% 29.97 in 8.0 mi WNW 12.7 mph - N/A   Partly Cloudy
7:30 PM 57.2 °F 55.4 °F 94% 29.97 in 7.0 mi WNW 11.5 mph - N/A   Scattered Clouds
7:50 PM 57.2 °F 55.4 °F 94% 29.98 in 7.0 mi NW 8.1 mph - N/A   Overcast
8:10 PM 57.2 °F 55.4 °F 94% 29.98 in 7.0 mi NW 8.1 mph - N/A   Overcast
8:30 PM 57.2 °F 55.4 °F 94% 29.98 in 7.0 mi WNW 9.2 mph - N/A   Overcast
8:50 PM 57.2 °F 55.4 °F 94% 29.98 in 7.0 mi WNW 6.9 mph - N/A   Overcast
9:10 PM 57.2 °F 55.4 °F 94% 29.98 in 8.0 mi NW 5.8 mph - N/A   Overcast
9:30 PM 57.2 °F 55.4 °F 94% 29.99 in 7.0 mi WNW 5.8 mph - N/A   Overcast
9:50 PM 55.4 °F 55.4 °F 100% 29.99 in 7.0 mi NW 3.5 mph - N/A   Overcast
10:10 PM 55.4 °F 55.4 °F 100% 29.99 in 7.0 mi NW 3.5 mph - N/A   Overcast
10:30 PM 55.4 °F 55.4 °F 100% 29.99 in 7.0 mi NW 3.5 mph - N/A   Overcast
10:50 PM 55.4 °F 55.4 °F 100% 29.99 in 6.0 mi Calm Calm - N/A   Overcast
11:10 PM 55.4 °F 55.4 °F 100% 29.99 in 5.0 mi WNW 4.6 mph - N/A   Overcast
11:30 PM 55.4 °F 55.4 °F 100% 29.99 in 5.0 mi WNW 3.5 mph - N/A   Overcast
11:50 PM 55.4 °F 55.4 °F 100% 29.99 in 5.0 mi Calm Calm - N/A   Overcast